JJA1181 RJFK-RKPC

Flight info

Callsign JJA1181
Flight time 1h 12m
Altitude 28000
Route SASIK Y14 DGC A595 TAMNA TAMNA2M
Aircraft B738/M-SDE2E3FGHIRWXY/LB1

Departure

Time 2026-04-29 08:57
Airport Kagoshima Airport (RJFK)

Arrival

Time 2026-04-29 10:09
Airport Jeju International Airport (RKPC)
Time Latitude Longitude Altitude Speed Heading
2026-04-29 08:31 31.80036 130.71737 884 ft 0 kts 240°
2026-04-29 08:42 31.80037 130.71739 881 ft 2 kts 240°
2026-04-29 08:42 31.80050 130.71765 880 ft 4 kts 242°
2026-04-29 08:42 31.80063 130.71794 880 ft 4 kts 240°
2026-04-29 08:42 31.80075 130.71817 881 ft 4 kts 227°
2026-04-29 08:43 31.80096 130.71833 881 ft 4 kts 180°
2026-04-29 08:43 31.80111 130.71830 881 ft 5 kts 144°
2026-04-29 08:43 31.80135 130.71799 881 ft 4 kts 124°
2026-04-29 08:43 31.80151 130.71774 882 ft 4 kts 141°
2026-04-29 08:44 31.80155 130.71770 882 ft 1 kts 147°
2026-04-29 08:47 31.80153 130.71772 882 ft 2 kts 147°
2026-04-29 08:47 31.80115 130.71851 880 ft 17 kts 123°
2026-04-29 08:47 31.80051 130.71911 879 ft 20 kts 150°
2026-04-29 08:47 31.79916 130.72001 876 ft 24 kts 150°
2026-04-29 08:48 31.79770 130.72097 874 ft 23 kts 151°
2026-04-29 08:48 31.79648 130.72182 873 ft 18 kts 150°
2026-04-29 08:48 31.79542 130.72253 872 ft 11 kts 144°
2026-04-29 08:48 31.79495 130.72285 872 ft 0 kts 149°
2026-04-29 08:49 31.79486 130.72291 872 ft 5 kts 149°
2026-04-29 08:50 31.79426 130.72332 870 ft 15 kts 149°
2026-04-29 08:50 31.79323 130.72404 869 ft 18 kts 150°
2026-04-29 08:50 31.79218 130.72473 870 ft 17 kts 151°
2026-04-29 08:50 31.79122 130.72548 868 ft 13 kts 123°
2026-04-29 08:51 31.79134 130.72621 866 ft 7 kts 54°
2026-04-29 08:51 31.79135 130.72622 866 ft 0 kts 55°
2026-04-29 08:52 31.79137 130.72628 865 ft 0 kts 61°
2026-04-29 08:53 31.79139 130.72632 865 ft 0 kts 62°
2026-04-29 08:54 31.79139 130.72633 865 ft 1 kts 62°
2026-04-29 08:54 31.79150 130.72655 864 ft 6 kts 62°
2026-04-29 08:54 31.79185 130.72697 864 ft 8 kts 27°
2026-04-29 08:54 31.79224 130.72693 865 ft 0 kts 328°
2026-04-29 08:56 31.79397 130.72577 869 ft 68 kts 330°
2026-04-29 08:57 31.80006 130.72163 877 ft 131 kts 330°
2026-04-29 08:57 31.80944 130.71523 976 ft 174 kts 328°
2026-04-29 08:57 31.81987 130.70796 1699 ft 172 kts 328°
2026-04-29 08:57 31.83047 130.70299 2637 ft 158 kts 342°
2026-04-29 08:58 31.84149 130.69930 3108 ft 177 kts 344°
2026-04-29 08:58 31.85432 130.69502 3371 ft 205 kts 344°
2026-04-29 08:58 31.86889 130.69020 3554 ft 229 kts 344°
2026-04-29 08:58 31.88486 130.68495 3844 ft 247 kts 344°
2026-04-29 08:59 31.90216 130.67928 4118 ft 267 kts 344°
2026-04-29 08:59 31.92040 130.67333 4811 ft 274 kts 345°
2026-04-29 08:59 31.93880 130.66733 5626 ft 276 kts 343°
2026-04-29 08:59 31.95735 130.66124 6431 ft 278 kts 341°
2026-04-29 09:00 31.97577 130.65408 7222 ft 279 kts 338°
2026-04-29 09:00 31.99418 130.64640 8004 ft 281 kts 337°
2026-04-29 09:00 32.01263 130.63871 8824 ft 282 kts 336°
2026-04-29 09:00 32.03118 130.63104 9619 ft 284 kts 336°
2026-04-29 09:01 32.04995 130.62335 10328 ft 289 kts 335°
2026-04-29 09:01 32.06958 130.61525 10546 ft 311 kts 335°
2026-04-29 09:01 32.09066 130.60657 10724 ft 333 kts 335°
2026-04-29 09:01 32.11326 130.59729 10877 ft 353 kts 336°
2026-04-29 09:02 32.13712 130.58756 11078 ft 371 kts 336°
2026-04-29 09:02 32.16169 130.57693 11484 ft 380 kts 335°
2026-04-29 09:02 32.18688 130.56677 12087 ft 384 kts 335°
2026-04-29 09:02 32.21213 130.55667 12733 ft 385 kts 334°
2026-04-29 09:03 32.23732 130.54565 13266 ft 389 kts 334°
2026-04-29 09:03 32.26332 130.53540 13772 ft 397 kts 335°
2026-04-29 09:03 32.28955 130.52518 14350 ft 398 kts 335°
2026-04-29 09:03 32.31699 130.51814 14896 ft 413 kts 349°
2026-04-29 09:04 32.34589 130.51726 15503 ft 417 kts 352°
2026-04-29 09:04 32.37502 130.51627 15962 ft 421 kts 351°
2026-04-29 09:04 32.40432 130.51454 16511 ft 422 kts 349°
2026-04-29 09:04 32.43365 130.51193 17035 ft 423 kts 348°
2026-04-29 09:05 32.46305 130.50892 17525 ft 426 kts 348°
2026-04-29 09:05 32.49270 130.50583 18009 ft 429 kts 348°
2026-04-29 09:05 32.52219 130.50283 18453 ft 432 kts 348°
2026-04-29 09:05 32.55226 130.49986 18845 ft 435 kts 348°
2026-04-29 09:06 32.58259 130.49693 19218 ft 440 kts 348°
2026-04-29 09:06 32.61328 130.49398 19520 ft 444 kts 348°
2026-04-29 09:06 32.64418 130.49101 19912 ft 447 kts 348°
2026-04-29 09:06 32.67523 130.48807 20331 ft 448 kts 348°
2026-04-29 09:07 32.70636 130.48523 20747 ft 449 kts 348°
2026-04-29 09:07 32.73758 130.48241 21105 ft 452 kts 348°
2026-04-29 09:07 32.76907 130.47956 21452 ft 455 kts 348°
2026-04-29 09:07 32.80073 130.47669 21796 ft 458 kts 348°
2026-04-29 09:08 32.83253 130.47373 22214 ft 457 kts 348°
2026-04-29 09:08 32.86446 130.47075 22392 ft 464 kts 348°
2026-04-29 09:08 32.89683 130.46755 22627 ft 468 kts 347°
2026-04-29 09:08 32.92928 130.46407 22972 ft 469 kts 347°
2026-04-29 09:09 32.96181 130.46050 23319 ft 470 kts 347°
2026-04-29 09:09 32.99442 130.45693 23620 ft 472 kts 347°
2026-04-29 09:09 33.02723 130.45338 23862 ft 475 kts 347°
2026-04-29 09:09 33.06019 130.44985 24099 ft 477 kts 347°
2026-04-29 09:10 33.09331 130.44654 24363 ft 478 kts 347°
2026-04-29 09:10 33.12653 130.44340 24609 ft 480 kts 348°
2026-04-29 09:10 33.15987 130.44026 24859 ft 481 kts 348°
2026-04-29 09:10 33.19322 130.43707 25108 ft 482 kts 347°
2026-04-29 09:11 33.22673 130.43382 25368 ft 483 kts 347°
2026-04-29 09:11 33.26027 130.43055 25604 ft 485 kts 347°
2026-04-29 09:11 33.29393 130.42727 25841 ft 486 kts 347°
2026-04-29 09:11 33.32769 130.42398 26076 ft 487 kts 347°
2026-04-29 09:12 33.36149 130.42069 26307 ft 488 kts 347°
2026-04-29 09:12 33.39540 130.41738 26541 ft 489 kts 347°
2026-04-29 09:12 33.42889 130.41412 26816 ft 490 kts 347°
2026-04-29 09:12 33.46285 130.41086 27199 ft 489 kts 347°
2026-04-29 09:13 33.49664 130.40769 27598 ft 486 kts 347°
2026-04-29 09:13 33.53026 130.40423 27834 ft 486 kts 346°
2026-04-29 09:13 33.56402 130.40084 28101 ft 486 kts 347°
2026-04-29 09:14 33.62756 130.38235 28116 ft 453 kts 320°
2026-04-29 09:14 33.65181 130.35949 28110 ft 436 kts 306°
2026-04-29 09:14 33.67045 130.33131 28110 ft 429 kts 296°
2026-04-29 09:15 33.69197 130.26623 28111 ft 417 kts 276°
2026-04-29 09:15 33.70001 130.19716 28107 ft 418 kts 274°
2026-04-29 09:16 33.70742 130.12785 28098 ft 419 kts 274°
2026-04-29 09:16 33.71531 130.05855 28102 ft 419 kts 274°
2026-04-29 09:17 33.72339 129.98931 28107 ft 419 kts 274°
2026-04-29 09:17 33.73147 129.92013 28102 ft 418 kts 274°
2026-04-29 09:18 33.73949 129.85098 28104 ft 418 kts 274°
2026-04-29 09:18 33.74629 129.78184 28105 ft 415 kts 269°
2026-04-29 09:19 33.74153 129.71328 28111 ft 411 kts 260°
2026-04-29 09:19 33.73383 129.64515 28104 ft 412 kts 261°
2026-04-29 09:20 33.72640 129.57690 28105 ft 412 kts 261°
2026-04-29 09:20 33.71900 129.50864 28105 ft 412 kts 261°
2026-04-29 09:21 33.71154 129.44028 28105 ft 413 kts 261°
2026-04-29 09:21 33.70403 129.37185 28109 ft 413 kts 261°
2026-04-29 09:22 33.69649 129.30347 28120 ft 414 kts 261°
2026-04-29 09:22 33.68895 129.23544 28109 ft 414 kts 261°
2026-04-29 09:23 33.68137 129.16692 28098 ft 414 kts 261°
2026-04-29 09:23 33.67376 129.09850 28120 ft 414 kts 260°
2026-04-29 09:24 33.66611 129.03003 28112 ft 414 kts 260°
2026-04-29 09:24 33.65841 128.96146 28115 ft 414 kts 260°
2026-04-29 09:25 33.65067 128.89288 28117 ft 414 kts 260°
2026-04-29 09:25 33.64289 128.82440 28122 ft 414 kts 260°
2026-04-29 09:26 33.63507 128.75580 28088 ft 414 kts 260°
2026-04-29 09:26 33.62723 128.68736 28107 ft 414 kts 260°
2026-04-29 09:27 33.61935 128.61895 28124 ft 414 kts 260°
2026-04-29 09:27 33.61142 128.55047 28118 ft 414 kts 260°
2026-04-29 09:28 33.60346 128.48200 28115 ft 414 kts 260°
2026-04-29 09:28 33.59545 128.41349 28115 ft 414 kts 260°
2026-04-29 09:29 33.58748 128.34555 28113 ft 414 kts 260°
2026-04-29 09:29 33.57573 128.24281 28112 ft 414 kts 260°
2026-04-29 09:30 33.56817 128.17441 28127 ft 414 kts 260°
2026-04-29 09:30 33.56053 128.10585 28120 ft 414 kts 260°
2026-04-29 09:31 33.55282 128.03734 28114 ft 415 kts 260°
2026-04-29 09:31 33.54633 127.97998 28120 ft 415 kts 260°
2026-04-29 09:32 33.53854 127.91144 28122 ft 415 kts 259°
2026-04-29 09:32 33.53070 127.84285 28113 ft 415 kts 259°
2026-04-29 09:33 33.52677 127.80859 27993 ft 418 kts 259°
2026-04-29 09:33 33.52285 127.77449 27733 ft 418 kts 259°
2026-04-29 09:33 33.51884 127.73967 27484 ft 417 kts 259°
2026-04-29 09:33 33.51490 127.70559 27258 ft 418 kts 259°
2026-04-29 09:34 33.51085 127.67064 27012 ft 418 kts 259°
2026-04-29 09:34 33.50693 127.63681 26771 ft 414 kts 259°
2026-04-29 09:34 33.50295 127.60260 26538 ft 416 kts 259°
2026-04-29 09:34 33.49893 127.56824 26300 ft 418 kts 259°
2026-04-29 09:35 33.49490 127.53377 25654 ft 418 kts 260°
2026-04-29 09:35 33.49084 127.49912 24845 ft 417 kts 260°
2026-04-29 09:35 33.48682 127.46492 24125 ft 413 kts 260°
2026-04-29 09:35 33.48283 127.43098 23316 ft 410 kts 260°
2026-04-29 09:36 33.47886 127.39731 22560 ft 405 kts 260°
2026-04-29 09:36 33.47495 127.36420 21842 ft 399 kts 260°
2026-04-29 09:36 33.47107 127.33155 21149 ft 394 kts 260°
2026-04-29 09:36 33.46722 127.29922 20472 ft 389 kts 260°
2026-04-29 09:37 33.46340 127.26739 19825 ft 384 kts 260°
2026-04-29 09:37 33.45962 127.23591 19169 ft 380 kts 260°
2026-04-29 09:37 33.45587 127.20472 18504 ft 377 kts 260°
2026-04-29 09:37 33.45213 127.17376 17757 ft 374 kts 260°
2026-04-29 09:38 33.44844 127.14318 17079 ft 369 kts 260°
2026-04-29 09:38 33.44478 127.11294 16423 ft 365 kts 260°
2026-04-29 09:38 33.44116 127.08311 15791 ft 360 kts 260°
2026-04-29 09:38 33.43758 127.05356 15172 ft 356 kts 260°
2026-04-29 09:39 33.43403 127.02441 14564 ft 352 kts 260°
2026-04-29 09:39 33.43051 126.99557 13969 ft 349 kts 260°
2026-04-29 09:39 33.42701 126.96686 13321 ft 346 kts 260°
2026-04-29 09:39 33.42353 126.93848 12654 ft 344 kts 260°
2026-04-29 09:40 33.42006 126.91024 12022 ft 342 kts 261°
2026-04-29 09:40 33.41828 126.88193 11416 ft 343 kts 274°
2026-04-29 09:40 33.42429 126.85426 11222 ft 349 kts 288°
2026-04-29 09:40 33.43576 126.82837 11091 ft 364 kts 302°
2026-04-29 09:41 33.45221 126.80474 11035 ft 370 kts 307°
2026-04-29 09:41 33.46922 126.78158 11014 ft 369 kts 307°
2026-04-29 09:41 33.48604 126.75836 11007 ft 369 kts 306°
2026-04-29 09:41 33.50270 126.73497 11003 ft 371 kts 306°
2026-04-29 09:42 33.51950 126.71139 11007 ft 372 kts 309°
2026-04-29 09:42 33.54005 126.69223 11014 ft 382 kts 330°
2026-04-29 09:42 33.56579 126.68329 11008 ft 391 kts 350°
2026-04-29 09:42 33.59317 126.68400 10929 ft 398 kts
2026-04-29 09:43 33.61933 126.69508 10855 ft 402 kts 24°
2026-04-29 09:43 33.64430 126.71036 10773 ft 402 kts 25°
2026-04-29 09:43 33.66892 126.72584 10683 ft 400 kts 25°
2026-04-29 09:43 33.69305 126.74099 10593 ft 388 kts 25°
2026-04-29 09:44 33.71618 126.75544 10479 ft 361 kts 24°
2026-04-29 09:44 33.73775 126.76878 10421 ft 337 kts 24°
2026-04-29 09:44 33.75797 126.78117 10352 ft 318 kts 24°
2026-04-29 09:44 33.77755 126.79310 10308 ft 317 kts 24°
2026-04-29 09:45 33.79736 126.80515 10265 ft 316 kts 24°
2026-04-29 09:45 33.81653 126.81686 10184 ft 301 kts 24°
2026-04-29 09:45 33.83489 126.82809 10059 ft 293 kts 24°
2026-04-29 09:45 33.85274 126.83901 10005 ft 282 kts 24°
2026-04-29 09:46 33.86973 126.84983 9991 ft 272 kts 32°
2026-04-29 09:46 33.88218 126.86630 10008 ft 266 kts 61°
2026-04-29 09:46 33.88885 126.88715 10009 ft 267 kts 74°
2026-04-29 09:46 33.89334 126.90846 10012 ft 259 kts 76°
2026-04-29 09:47 33.89759 126.92931 9995 ft 255 kts 75°
2026-04-29 09:47 33.90196 126.95010 10013 ft 258 kts 75°
2026-04-29 09:47 33.90645 126.97106 10013 ft 256 kts 75°
2026-04-29 09:47 33.91018 126.99183 9730 ft 255 kts 89°
2026-04-29 09:48 33.90621 127.01204 9438 ft 244 kts 123°
2026-04-29 09:48 33.89602 127.02783 9200 ft 236 kts 137°
2026-04-29 09:48 33.88464 127.04140 8975 ft 225 kts 139°
2026-04-29 09:48 33.87352 127.05439 8592 ft 222 kts 138°
2026-04-29 09:49 33.86259 127.06729 8281 ft 216 kts 137°
2026-04-29 09:49 33.85169 127.07925 8115 ft 215 kts 148°
2026-04-29 09:49 33.83869 127.08830 7888 ft 218 kts 148°
2026-04-29 09:49 33.82924 127.10253 7600 ft 224 kts 106°
2026-04-29 09:50 33.82990 127.12073 7366 ft 221 kts 64°
2026-04-29 09:50 33.84008 127.13363 7120 ft 213 kts 28°
2026-04-29 09:50 33.84973 127.14627 6805 ft 212 kts 84°
2026-04-29 09:50 33.84481 127.16242 6721 ft 222 kts 142°
2026-04-29 09:51 33.83052 127.16911 6498 ft 227 kts 182°
2026-04-29 09:51 33.81518 127.16669 6254 ft 221 kts 182°
2026-04-29 09:51 33.80038 127.17026 5969 ft 216 kts 153°
2026-04-29 09:51 33.78894 127.18144 5689 ft 213 kts 126°
2026-04-29 09:52 33.78207 127.19698 5455 ft 208 kts 116°
2026-04-29 09:52 33.77555 127.21240 5194 ft 206 kts 117°
2026-04-29 09:52 33.76897 127.22756 4943 ft 204 kts 116°
2026-04-29 09:52 33.76213 127.24210 4678 ft 201 kts 127°
2026-04-29 09:53 33.75136 127.25271 4402 ft 199 kts 156°
2026-04-29 09:53 33.73795 127.25539 4142 ft 197 kts 186°
2026-04-29 09:53 33.72454 127.25191 4068 ft 198 kts 193°
2026-04-29 09:53 33.71104 127.24811 4028 ft 200 kts 192°
2026-04-29 09:54 33.69765 127.24439 4005 ft 199 kts 192°
2026-04-29 09:54 33.68420 127.24068 3995 ft 198 kts 192°
2026-04-29 09:54 33.67074 127.23692 3999 ft 199 kts 192°
2026-04-29 09:54 33.65713 127.23322 3959 ft 206 kts 192°
2026-04-29 09:55 33.64314 127.22970 4006 ft 207 kts 192°
2026-04-29 09:55 33.62903 127.22608 4002 ft 206 kts 192°
2026-04-29 09:55 33.61504 127.22247 3998 ft 205 kts 192°
2026-04-29 09:55 33.60113 127.21887 3989 ft 204 kts 192°
2026-04-29 09:56 33.58726 127.21526 3999 ft 203 kts 193°
2026-04-29 09:56 33.57506 127.20762 3982 ft 199 kts 234°
2026-04-29 09:56 33.57131 127.19221 4009 ft 198 kts 281°
2026-04-29 09:56 33.57599 127.17663 4018 ft 203 kts 287°
2026-04-29 09:57 33.57836 127.15996 4013 ft 202 kts 278°
2026-04-29 09:57 33.58018 127.14329 4002 ft 201 kts 278°
2026-04-29 09:57 33.58191 127.12664 3955 ft 203 kts 277°
2026-04-29 09:57 33.58346 127.10972 3823 ft 205 kts 277°
2026-04-29 09:58 33.58485 127.09279 3694 ft 203 kts 276°
2026-04-29 09:58 33.58605 127.07631 3572 ft 195 kts 276°
2026-04-29 09:58 33.58713 127.06020 3440 ft 191 kts 276°
2026-04-29 09:58 33.58811 127.04459 3312 ft 190 kts 275°
2026-04-29 09:59 33.58905 127.02875 3183 ft 190 kts 275°
2026-04-29 09:59 33.58995 127.01293 3057 ft 190 kts 275°
2026-04-29 09:59 33.59081 126.99708 2951 ft 191 kts 274°
2026-04-29 09:59 33.59162 126.98131 2909 ft 188 kts 276°
2026-04-29 10:00 33.59240 126.96609 2898 ft 178 kts 276°
2026-04-29 10:00 33.59314 126.95144 2895 ft 174 kts 276°
2026-04-29 10:00 33.59386 126.93699 2902 ft 174 kts 276°
2026-04-29 10:00 33.59457 126.92248 2918 ft 174 kts 276°
2026-04-29 10:01 33.59528 126.90797 2913 ft 174 kts 276°
2026-04-29 10:01 33.59598 126.89346 2900 ft 174 kts 276°
2026-04-29 10:01 33.59668 126.87893 2910 ft 174 kts 276°
2026-04-29 10:01 33.59737 126.86441 2913 ft 175 kts 276°
2026-04-29 10:02 33.59806 126.84980 2908 ft 176 kts 276°
2026-04-29 10:02 33.59875 126.83512 2907 ft 177 kts 276°
2026-04-29 10:02 33.59944 126.82039 2911 ft 178 kts 276°
2026-04-29 10:02 33.60013 126.80556 2910 ft 178 kts 276°
2026-04-29 10:03 33.60082 126.79070 2911 ft 179 kts 276°
2026-04-29 10:03 33.60151 126.77581 2903 ft 179 kts 276°
2026-04-29 10:03 33.60220 126.76089 2901 ft 179 kts 276°
2026-04-29 10:03 33.60288 126.74603 2896 ft 178 kts 276°
2026-04-29 10:04 33.60356 126.73117 2891 ft 178 kts 276°
2026-04-29 10:04 33.60424 126.71634 2904 ft 178 kts 276°
2026-04-29 10:04 33.60491 126.70151 2904 ft 179 kts 276°
2026-04-29 10:04 33.60558 126.68659 2902 ft 179 kts 275°
2026-04-29 10:05 33.60345 126.67187 2911 ft 181 kts 252°
2026-04-29 10:05 33.59814 126.65786 2711 ft 185 kts 243°
2026-04-29 10:05 33.59167 126.64510 2516 ft 174 kts 240°
2026-04-29 10:05 33.58557 126.63301 2322 ft 168 kts 239°
2026-04-29 10:06 33.57943 126.62111 2185 ft 166 kts 239°
2026-04-29 10:06 33.57347 126.60967 2057 ft 158 kts 239°
2026-04-29 10:06 33.56767 126.59858 1893 ft 155 kts 239°
2026-04-29 10:06 33.56187 126.58745 1799 ft 158 kts 239°
2026-04-29 10:07 33.55604 126.57629 1613 ft 158 kts 239°
2026-04-29 10:07 33.55027 126.56523 1404 ft 155 kts 238°
2026-04-29 10:07 33.54460 126.55437 1191 ft 153 kts 238°
2026-04-29 10:07 33.53905 126.54357 1002 ft 152 kts 240°
2026-04-29 10:08 33.53341 126.53303 796 ft 153 kts 239°
2026-04-29 10:08 33.52780 126.52236 576 ft 148 kts 239°
2026-04-29 10:08 33.52244 126.51190 428 ft 148 kts 239°
2026-04-29 10:08 33.51693 126.50138 217 ft 149 kts 239°
2026-04-29 10:09 33.51172 126.49139 86 ft 130 kts 239°
2026-04-29 10:09 33.50779 126.48372 90 ft 86 kts 238°
2026-04-29 10:09 33.50546 126.47927 89 ft 53 kts 237°
2026-04-29 10:09 33.50397 126.47644 90 ft 19 kts 232°
2026-04-29 10:10 33.50295 126.47549 91 ft 18 kts 211°
2026-04-29 10:10 33.50183 126.47503 91 ft 14 kts 168°
2026-04-29 10:10 33.50179 126.47598 91 ft 13 kts 66°
2026-04-29 10:10 33.50225 126.47690 90 ft 13 kts 59°
2026-04-29 10:11 33.50270 126.47780 90 ft 12 kts 59°
2026-04-29 10:11 33.50316 126.47866 89 ft 12 kts 54°
2026-04-29 10:11 33.50361 126.47950 89 ft 12 kts 59°
2026-04-29 10:11 33.50407 126.48041 92 ft 15 kts 59°
2026-04-29 10:12 33.50471 126.48164 90 ft 20 kts 57°
2026-04-29 10:12 33.50549 126.48310 90 ft 21 kts 57°
2026-04-29 10:12 33.50624 126.48454 88 ft 20 kts 59°
2026-04-29 10:12 33.50695 126.48594 92 ft 19 kts 58°
2026-04-29 10:13 33.50762 126.48731 91 ft 19 kts 58°
2026-04-29 10:13 33.50789 126.48842 90 ft 11 kts 124°
2026-04-29 10:13 33.50726 126.48883 89 ft 10 kts 148°
2026-04-29 10:13 33.50658 126.48905 87 ft 10 kts 155°
2026-04-29 10:14 33.50620 126.48931 88 ft 3 kts 149°
2026-04-29 10:14 33.50603 126.48942 87 ft 3 kts 150°
2026-04-29 10:14 33.50596 126.48947 87 ft 0 kts 150°